Вернуться в каталог

STARLINK-5702

АктивенСвязьVLEO
NORAD 55622·PAYLOAD·🇺🇸 United States

Запущен Feb 12, 2023 с Cape Canaveral Space Force Station

Loading…

Ближайшие Пролёты (ближайшие 24 часа)

TLE

СвежийSource: CelesTrak SupGP

Эпоха: Sep 15, 2026, 01:24 UTC

1 55622C 23020BF  26258.05881944 -.00045970  00000+0 -16651-2 0  2584
2 55622  43.0042   4.7900 0001707 269.2988 343.0260 15.27598914    14

Отслеживайте STARLINK-5702 в реальном времени с AllMySat

Download on the App Store